Regional Weather Roundup
Issued by NWS Raleigh/Durham, NC

Home | Current Version | Previous Version | Text Only | Print | Product List | Glossary On
Versions: 1 2 3 4 5 6 7 8 9 10 11 12 13 14 15 16 17 18 19 20 21 22 23 24 25 26 27 28 29 30 31 32 33 34 35 36 37 38 39 40 41 42 43 44 45 46 47 48 49 50
000
ASUS42 KRAH 300310
RWRRAH
NORTH CAROLINA WEATHER ROUNDUP
NATIONAL WEATHER SERVICE RALEIGH NC
1100 PM EDT MON AUG 29 2016

NOTE: "FAIR" INDICATES FEW OR NO CLOUDS BELOW 12,000 FEET WITH NO
SIGNIFICANT WEATHER AND/OR OBSTRUCTIONS TO VISIBILITY.

NCZ001-053-055-056-065-067-300400-
WESTERN NORTH CAROLINA

CITY           SKY/WX    TMP DP  RH WIND       PRES   REMARKS
ASHEVILLE      CLEAR     69  64  84 MISG      30.21S
JEFFERSON      CLEAR     68  64  88 CALM      30.27F
MORGANTON      CLEAR     74  69  86 CALM      30.20F
HICKORY        CLEAR     74  69  85 N3        30.15S
RUTHERFORDTON    N/A     74  71  91 CALM      30.15S
MOUNT AIRY     CLEAR     76  68  76 CALM      30.18F
BOONE          CLEAR     65  65  99 CALM      30.28F
$$

NCZ021-022-025-041-071-084-088-300400-
CENTRAL NORTH CAROLINA

CITY           SKY/WX    TMP DP  RH WIND       PRES   REMARKS
CHARLOTTE      CLOUDY    80  62  54 E6        30.12S
GREENSBORO     PTCLDY    77  65  66 N3        30.13S
WINSTON-SALEM  CLEAR     75  66  73 N5        30.15S
RALEIGH-DURHAM PTCLDY    74  64  71 N3        30.10S
FORT BRAGG     CLOUDY    79  71  76 CALM      30.08S
FAYETTEVILLE   CLOUDY    80  71  74 CALM      30.08S
BURLINGTON     CLEAR     70  67  90 CALM      30.12R
LAURINBURG     CLOUDY    77  70  79 CALM      30.09F
$$

NCZ011-015-027-028-043-044-047-080-103-300400-
NORTHEASTERN NORTH CAROLINA

CITY           SKY/WX    TMP DP  RH WIND       PRES   REMARKS
ROCKY MT-WILSO MOCLDY    76  74  93 CALM      30.09S
GREENVILLE     CLEAR     72  68  88 NE3       30.10S
WASHINGTON     PTCLDY    73  68  86 CALM      30.08S
ELIZABETH CITY CLEAR     74  70  87 N8        30.08S
MANTEO         PTCLDY    77  72  82 E10       30.07S
CAPE HATTERAS  PTCLDY    80  76  87 NE8       30.05R
$$

NCZ078-087-090-091-093-098-101-300400-
SOUTHEASTERN NORTH CAROLINA

CITY           SKY/WX    TMP DP  RH WIND       PRES   REMARKS
LUMBERTON      MOCLDY    75  73  93 CALM      30.07F
GOLDSBORO      CLOUDY    76  76 100 CALM      30.06F
KINSTON        CLOUDY    76  74  93 NE3       30.08F
KENANSVILLE    CLEAR     72  72 100 CALM      30.08S
NEW BERN       PTCLDY    75  71  87 NE7       30.07F
CHERRY POINT   PTCLDY    77  71  82 NE9       30.06F
BEAUFORT       MOCLDY    78  72  81 NE9       30.05S
JACKSONVILLE   CLEAR     76  73  91 N5        30.06S
WILMINGTON     PTCLDY    73  72  96 N3        30.06S
$$




USA.gov is the U.S. government's official web portal to all federal, state and local government web resources and services.